Location: Alando
(42.3054°N, 9.2895°E)
Time: 10:47:12
(UTC+00:00)

STARLINK-1239 - Pass Details

Date: 09 April 2020
Orbit: 549 x 551 km, 53.0° (Epoch: 06 June)

Event Time Altitude Azimuth Distance (km) Brightness Sun altitude
Rises 20:17:45 0° 308° (NW) 2,723 8.6 -24.2°
Reaches altitude 10° 20:20:01 10° 311° (NW) 1,827 7.3 -24.5°
Enters shadow 20:23:35 55° 353° (N) 661 4.1 -25.0°
